When you browse on this site, cookies collect data to enhance your experience and personalize the content and advertising you see.
Visit our Privacy Policy to learn more. By continuing to use the site, you agree to this use of cookies and data.
  • In Latvia
  • List of Countries
  • For 7 days
  • Water Temperature
  • Weather Map
  • Weather Widgets
  • user-avatar
    Login

    Hourly Weather Kaprun

    Today, 22 August, Thursday

    Time Temperature Precipitation Wind Pressure Humidity
    00:00 +8°C° 0.1 mm 1 mps 603 mmHg 96%
    01:00 +8°C° 0.1 mm 1 mps 603 mmHg 95%
    02:00 +7°C° 0 mm 0 mps 603 mmHg 95%
    03:00 +6°C° 0 mm 0 mps 602 mmHg 94%
    04:00 +6°C° 0 mm 0 mps 602 mmHg 94%
    05:00 +7°C° 0 mm 0 mps 603 mmHg 91%
    06:00 +8°C° 0 mm 0 mps 603 mmHg 87%
    07:00 +9°C° 0 mm 0 mps 604 mmHg 84%
    08:00 +11°C° 0.1 mm 0 mps 605 mmHg 79%
    09:00 +14°C° 0.1 mm 1 mps 605 mmHg 73%
    10:00 +15°C° 0.1 mm 1 mps 606 mmHg 67%
    11:00 +16°C° 0.9 mm 1 mps 606 mmHg 68%
    12:00 +16°C° 0.9 mm 1 mps 606 mmHg 68%
    13:00 +16°C° 0.9 mm 1 mps 606 mmHg 69%
    14:00 +16°C° 1.1 mm 1 mps 605 mmHg 73%
    15:00 +15°C° 1.1 mm 1 mps 605 mmHg 77%
    16:00 +14°C° 1.1 mm 1 mps 605 mmHg 81%
    17:00 +13°C° 0.5 mm 1 mps 604 mmHg 84%
    18:00 +12°C° 0.5 mm 1 mps 604 mmHg 87%
    19:00 +11°C° 0.5 mm 1 mps 604 mmHg 90%
    20:00 +10°C° 0 mm 0 mps 604 mmHg 90%
    21:00 +9°C° 0 mm 0 mps 604 mmHg 90%
    22:00 +9°C° 0 mm 0 mps 604 mmHg 90%
    23:00 +8°C° 0 mm 0 mps 604 mmHg 90%

    Tomorrow, 23 August, Friday

    Time Temperature Precipitation Wind Pressure Humidity
    00:00 +8°C° 0 mm 0 mps 603 mmHg 90%
    01:00 +7°C° 0 mm 0 mps 603 mmHg 89%
    02:00 +7°C° 0 mm 0 mps 603 mmHg 89%
    03:00 +7°C° 0 mm 0 mps 602 mmHg 89%
    04:00 +7°C° 0 mm 0 mps 602 mmHg 90%
    05:00 +9°C° 0 mm 1 mps 603 mmHg 88%
    06:00 +10°C° 0 mm 1 mps 603 mmHg 86%
    07:00 +11°C° 0 mm 1 mps 604 mmHg 84%
    08:00 +13°C° 0.2 mm 1 mps 605 mmHg 80%
    09:00 +14°C° 0.2 mm 1 mps 605 mmHg 76%
    10:00 +15°C° 0.2 mm 1 mps 606 mmHg 72%
    11:00 +16°C° 0.7 mm 1 mps 606 mmHg 71%
    12:00 +16°C° 0.7 mm 1 mps 606 mmHg 69%
    13:00 +18°C° 0.7 mm 1 mps 605 mmHg 68%
    14:00 +16°C° 1.2 mm 1 mps 605 mmHg 71%
    15:00 +16°C° 1.2 mm 1 mps 605 mmHg 75%
    16:00 +16°C° 1.2 mm 1 mps 604 mmHg 79%
    17:00 +14°C° 0.6 mm 1 mps 604 mmHg 82%
    18:00 +13°C° 0.6 mm 1 mps 603 mmHg 85%
    19:00 +11°C° 0.6 mm 1 mps 602 mmHg 89%
    20:00 +11°C° 0 mm 1 mps 602 mmHg 88%
    21:00 +10°C° 0 mm 1 mps 602 mmHg 88%
    22:00 +9°C° 0 mm 1 mps 602 mmHg 88%
    23:00 +9°C° 0 mm 1 mps 602 mmHg 88%

    Day after tomorrow, 24 August, Saturday

    Time Temperature Precipitation Wind Pressure Humidity
    00:00 +9°C° 0 mm 1 mps 601 mmHg 87%
    01:00 +8°C° 0 mm 1 mps 601 mmHg 87%
    02:00 +8°C° 0 mm 1 mps 601 mmHg 86%
    03:00 +8°C° 0 mm 1 mps 601 mmHg 86%
    04:00 +8°C° 0 mm 1 mps 601 mmHg 85%
    05:00 +9°C° 0 mm 1 mps 601 mmHg 83%
    06:00 +11°C° 0 mm 1 mps 602 mmHg 80%
    07:00 +12°C° 0 mm 1 mps 603 mmHg 78%
    08:00 +14°C° 0.1 mm 1 mps 604 mmHg 70%
    09:00 +16°C° 0.1 mm 1 mps 604 mmHg 62%
    10:00 +19°C° 0.1 mm 1 mps 605 mmHg 55%
    11:00 +19°C° 0.5 mm 1 mps 605 mmHg 55%
    12:00 +20°C° 0.5 mm 1 mps 605 mmHg 55%
    13:00 +20°C° 0.5 mm 1 mps 605 mmHg 55%
    14:00 +19°C° 1.2 mm 1 mps 604 mmHg 61%
    15:00 +18°C° 1.2 mm 1 mps 604 mmHg 67%
    16:00 +16°C° 1.2 mm 1 mps 603 mmHg 72%
    17:00 +15°C° 1.1 mm 1 mps 602 mmHg 78%
    18:00 +13°C° 1.1 mm 1 mps 602 mmHg 84%
    19:00 +10°C° 1.1 mm 0 mps 601 mmHg 90%
    20:00 +11°C° 0.2 mm 1 mps 601 mmHg 89%
    21:00 +10°C° 0.2 mm 1 mps 601 mmHg 88%
    22:00 +9°C° 0.2 mm 1 mps 601 mmHg 88%
    23:00 +9°C° 0 mm 1 mps 600 mmHg 88%

    25 August, Sunday

    Time Temperature Precipitation Wind Pressure Humidity
    00:00 +9°C° 0 mm 1 mps 600 mmHg 87%
    01:00 +9°C° 0 mm 1 mps 600 mmHg 87%
    02:00 +8°C° 0 mm 1 mps 600 mmHg 87%
    03:00 +8°C° 0 mm 1 mps 600 mmHg 86%
    04:00 +8°C° 0 mm 1 mps 600 mmHg 86%
    05:00 +8°C° 0 mm 0 mps 600 mmHg 83%
    06:00 +10°C° 0 mm 0 mps 601 mmHg 80%
    07:00 +12°C° 0 mm 0 mps 602 mmHg 77%
    08:00 +13°C° 0 mm 0 mps 603 mmHg 70%
    09:00 +16°C° 0 mm 1 mps 604 mmHg 63%
    10:00 +19°C° 0 mm 1 mps 604 mmHg 56%
    11:00 +19°C° 0.7 mm 1 mps 604 mmHg 57%
    12:00 +20°C° 0.7 mm 1 mps 604 mmHg 58%
    13:00 +20°C° 0.7 mm 1 mps 604 mmHg 58%
    14:00 +19°C° 1.6 mm 1 mps 604 mmHg 63%
    15:00 +18°C° 1.6 mm 1 mps 603 mmHg 69%
    16:00 +18°C° 1.6 mm 1 mps 603 mmHg 74%
    17:00 +15°C° 0.8 mm 1 mps 602 mmHg 79%
    18:00 +13°C° 0.8 mm 1 mps 602 mmHg 85%
    19:00 +11°C° 0.8 mm 0 mps 601 mmHg 90%
    20:00 +10°C° 0 mm 0 mps 601 mmHg 90%
    21:00 +10°C° 0 mm 1 mps 601 mmHg 90%
    22:00 +10°C° 0 mm 1 mps 601 mmHg 90%
    23:00 +9°C° 0 mm 1 mps 601 mmHg 89%

    26 August, Monday

    Time Temperature Precipitation Wind Pressure Humidity
    00:00 +9°C° 0 mm 1 mps 601 mmHg 89%
    01:00 +8°C° 0 mm 1 mps 601 mmHg 89%
    02:00 +8°C° 0 mm 1 mps 600 mmHg 88%
    03:00 +8°C° 0 mm 1 mps 600 mmHg 87%
    04:00 +8°C° 0 mm 1 mps 600 mmHg 85%
    05:00 +9°C° 0 mm 1 mps 601 mmHg 82%
    06:00 +10°C° 0 mm 1 mps 602 mmHg 79%
    07:00 +12°C° 0 mm 1 mps 603 mmHg 77%
    08:00 +14°C° 0 mm 1 mps 604 mmHg 67%
    09:00 +16°C° 0 mm 1 mps 604 mmHg 57%
    10:00 +19°C° 0 mm 1 mps 605 mmHg 48%
    11:00 +20°C° 0 mm 1 mps 606 mmHg 45%
    12:00 +20°C° 0 mm 1 mps 606 mmHg 43%
    13:00 +20°C° 0 mm 2 mps 606 mmHg 41%
    14:00 +20°C° 0.3 mm 2 mps 606 mmHg 46%
    15:00 +19°C° 0.3 mm 2 mps 605 mmHg 51%
    16:00 +19°C° 0.3 mm 2 mps 605 mmHg 55%
    17:00 +16°C° 0.5 mm 1 mps 604 mmHg 67%
    18:00 +14°C° 0.5 mm 1 mps 603 mmHg 79%
    19:00 +10°C° 0.5 mm 0 mps 602 mmHg 91%
    20:00 +10°C° 0 mm 0 mps 602 mmHg 90%
    21:00 +9°C° 0 mm 0 mps 602 mmHg 90%
    22:00 +10°C° 0 mm 1 mps 602 mmHg 90%
    23:00 +10°C° 0 mm 1 mps 602 mmHg 89%

    27 August, Tuesday

    Time Temperature Precipitation Wind Pressure Humidity
    00:00 +9°C° 0 mm 1 mps 602 mmHg 89%
    01:00 +9°C° 0 mm 1 mps 602 mmHg 88%
    02:00 +9°C° 0 mm 1 mps 601 mmHg 88%
    03:00 +9°C° 0 mm 1 mps 601 mmHg 88%
    04:00 +9°C° 0 mm 1 mps 601 mmHg 88%
    05:00 +10°C° 0 mm 1 mps 601 mmHg 85%
    06:00 +11°C° 0 mm 1 mps 602 mmHg 83%
    07:00 +12°C° 0 mm 1 mps 603 mmHg 80%
    08:00 +14°C° 0.1 mm 1 mps 603 mmHg 72%
    09:00 +16°C° 0.1 mm 1 mps 604 mmHg 64%
    10:00 +19°C° 0.1 mm 1 mps 605 mmHg 56%
    11:00 +19°C° 0.2 mm 2 mps 605 mmHg 54%
    12:00 +20°C° 0.2 mm 2 mps 605 mmHg 51%
    13:00 +20°C° 0.2 mm 2 mps 605 mmHg 48%
    14:00 +20°C° 0.5 mm 2 mps 604 mmHg 53%
    15:00 +19°C° 0.5 mm 2 mps 604 mmHg 58%
    16:00 +19°C° 0.5 mm 2 mps 603 mmHg 62%
    17:00 +17°C° 0.3 mm 2 mps 602 mmHg 70%
    18:00 +15°C° 0.3 mm 2 mps 601 mmHg 78%
    19:00 +13°C° 0.3 mm 2 mps 600 mmHg 86%
    20:00 +12°C° 0 mm 2 mps 600 mmHg 86%
    21:00 +10°C° 0 mm 2 mps 600 mmHg 86%
    22:00 +10°C° 0 mm 2 mps 600 mmHg 86%
    23:00 +9°C° 0 mm 2 mps 600 mmHg 86%
    Show more